Flag for Cyprus Weather past 2 weeks in Nicosia, Cyprus

Now
73 °F

Clear.


Feels Like: 73 °F
Forecast: 74 / 94 °F
Wind: 5 mph from Southwest

Location: Ercan

Current Time: Aug 28, 2014 at 4:20:04 AM

Latest Report: Aug 28, 2014 at 3:50 AM


Visibility: 10 mi

Pressure: 29.68 "Hg

Humidity: 83%

Dew point: 68 °F

Location of NicosiaLocation

Historic Weather in Nicosia — Graph

°F

Nicosia temperature yesterday

Maximum temperature yesterday: 99 °F (at 1:20 PM)
Minimum temperature yesterday: 73 °F (at 4:50 AM)
Average temperature yesterday: 85 °F

Past Weeks' High & Low Weather Summary

 TemperatureHumidityPressure
High104 °F (Aug 24, 12:50 PM)94% (Aug 13, 5:20 AM)29.92 "Hg (Aug 13, 5:20 AM)
Low70 °F (Aug 14, 5:50 AM)14% (Aug 15, 3:50 PM)29.56 "Hg (Aug 17, 1:50 PM)
Average86 °F56%29.73 "Hg
* Reported Aug 13 2:20 AM — Aug 28 2:50 AM, Nicosia, Weather by CustomWeather, © 2014

Note: Actual official high and low records may vary slightly from our data, if they occured in-between our weather recording intervals... More about our weather records

Advertising

Nicosia weather history for previous 24 hours

 ConditionsComfort  
Time TempWeatherWind HumidityBarometerVisibility
2:50 AM
Aug 28
73 °FClear.No wind78%29.68 "Hg10 mi
2:20 AM75 °FClear.No wind78%29.68 "Hg10 mi
1:50 AM75 °FClear.3 mph83%29.68 "Hg10 mi
1:20 AM77 °FClear.3 mph79%29.71 "Hg10 mi
12:50 AM75 °FClear.5 mph78%29.71 "Hg10 mi
12:20 AM77 °FClear.No wind79%29.71 "Hg10 mi
11:50 PM
Aug 27
77 °FClear.7 mph79%29.71 "Hg10 mi
11:20 PM81 °FPassing clouds.5 mph70%29.71 "HgN/A
10:50 PM81 °FClear.9 mph70%29.71 "Hg10 mi
10:20 PM81 °FClear.7 mph70%29.71 "Hg10 mi
9:20 PM82 °FClear.13 mph62%29.71 "Hg10 mi
8:50 PM84 °FClear.12 mph58%29.68 "Hg10 mi
8:20 PM84 °FClear.12 mph58%29.68 "Hg10 mi
7:50 PM86 °FSunny.15 mph52%29.68 "Hg10 mi
7:20 PM88 °FSunny.15 mph46%29.68 "Hg10 mi
6:50 PM90 °FSunny.18 mph38%29.65 "Hg10 mi
5:20 PM95 °FPassing clouds.15 mph32%29.68 "HgN/A
4:50 PM95 °FPassing clouds.15 mph30%29.68 "HgN/A
4:20 PM95 °FPassing clouds.15 mph32%29.68 "HgN/A
3:50 PM97 °FPassing clouds.16 mph28%29.68 "HgN/A
3:20 PM97 °FPassing clouds.16 mph28%29.68 "HgN/A
2:50 PM99 °FPassing clouds.13 mph31%29.68 "HgN/A
2:20 PM97 °FPassing clouds.15 mph34%29.68 "HgN/A
1:50 PM99 °FPassing clouds.6 mph29%29.71 "HgN/A
1:20 PM99 °FPassing clouds.5 mph27%29.71 "HgN/A
12:50 PM97 °FPassing clouds.5 mph30%29.71 "HgN/A
12:20 PM93 °FPassing clouds.3 mph36%29.74 "HgN/A
11:50 AM95 °FPassing clouds.6 mph34%29.74 "HgN/A
11:20 AM91 °FPassing clouds.6 mph41%29.74 "HgN/A
10:50 AM90 °FPassing clouds.7 mph49%29.74 "HgN/A
10:20 AM88 °FPassing clouds.6 mph55%29.77 "HgN/A
9:50 AM86 °FPassing clouds.6 mph59%29.77 "HgN/A
9:20 AM86 °FPassing clouds.6 mph62%29.77 "HgN/A
8:50 AM82 °FScattered clouds.5 mph74%29.77 "Hg5 mi
8:20 AM81 °FScattered clouds.3 mph79%29.77 "Hg4 mi
7:50 AM79 °FScattered clouds.No wind84%29.77 "Hg4 mi
7:20 AM75 °FScattered clouds.No wind89%29.77 "Hg4 mi
6:50 AM73 °FPassing clouds.No wind83%29.74 "Hg4 mi
6:20 AM73 °FPassing clouds.No wind83%29.74 "Hg4 mi
5:50 AM73 °FClear.No wind89%29.74 "Hg10 mi
5:20 AM73 °FClear.No wind83%29.74 "Hg10 mi
4:50 AM73 °FClear.No wind89%29.74 "Hg10 mi
4:20 AM75 °FClear.No wind83%29.74 "Hg10 mi
Weather by CustomWeather, © 2014

See weather overviewHow to use our weather pages